Hovedside
METAR-TAF:

METAR-TAF

Lufthavner :

Sandnessjøen, Norge

Sandnessjøen lufthavn

breddegrad: 65-58N, lengdegrad: 012-28E, høyde over havet: 1 m

Gjeldene værobservasjon

Denne rapporten ble laget for 1 time og 51 minutter siden, klokken 18:20 UTC
Vind 11 kt fra Nord-nordøst
Temperatur 8°C
Luftfuktighet 66%
Trykk 1011 hPa
Sikt 10 km eller mer
Få skyer i en høyde av 3000 ft

METAR: ENST 281820Z 02011KT 9999 FEW030 08/02 Q1011 RMK WIND 300FT 05010KT

Tid: 22:11 (20:11 UTC)


TAF: fraværende

Værobservasjoner og værvarsel for over 4000 flyplasser (METAR- og TAF-rapporter).

Tilgjengelige stasjoner er representert av de røde og gule prikkene på kartet.

Hold musepekeren over prikken for å se navnet på stasjonen.

Klikk så for å se værobservasjoner og -varsler.

For å forandre kartet kan du klikke på den grønne knappen med svart kryss for å zoome inn, på den grønne knappen med strek for å zoome ut, eller på de grønne pilene for å se tilstøtende kart.


METAR-TAF: